ORBCOMM FM108 [+] (41187 NORAD) Tracking and Keplerian Element Data

This shows tracking and keplerian element data for the satellite.

Feedback or suggestion? Click here.




ElementValue
Catalog41187
NameORBCOMM FM108 [+]
Epoch Orbit16022
Epoch Day345.49556392
Epoch Year2018
RAAN138.0246
Inclination47.0056
Eccentricity0.000227
Argument of Perigee233.1337
Mean Anonmoly126.9339
Mean Motion14.54749455
Decay Rate-2.31E-06
L11 41187U 15081J 18345.49556392 -.00000231 00000-0 -15016-4 0 9995
L22 41187 47.0056 138.0246 0002270 233.1337 126.9339 14.54749455160224

Live tracking and technical data element details for ORBCOMM FM108 [+] (NORAD 41187). ORBCOMM FM108 [+] can be tracked NOW for your location showing map with azimuth and elevation plus other details from your city location.

Track the satellite on the map from your city or location and see movement details for azimuth, elevation, latitude, longitude, range, height, and movement on the map or in text.







IsCatalogInMostPopularTable: catalog: 41187, numindb: 108
Update: records affected: 1



GetName: 41187 ORBCOMM FM108 [+]

Hit Count: updated at: Thu, 13 Dec 2018 04:37:40 GMT